Skip to main content

CRUISE INFORMATION RECORD AND DATA
 
NODC Cruise 74-11946 Information
WOD CRUISE REFERENCE # 74011946
DATA:
in WOD format 74011946_XBT.dat
74011946_CTD.dat
in 'csv' format 74011946_XBT.csv
74011946_CTD.csv
METADATA:
COUNTRY UNITED KINGDOM (74)
NODC ACCESSION NUMBER (XBT) 722
NODC ACCESSION NUMBER (CTD) 44519
SHIP NAME (722) JAMES CLARK ROSS (ZDLP)
INSTITUTE (722) HYDRO DEPARTMENT (BRITISH HYDROGRAPHIC OFFICE)
PROJECT (44519) ATLANTIC MERIDIONAL TRANSECT PROGRAM (AMT)
ORIGINATORS CRUISE CODE (CTD) AMT5
SUBMITTING INFORMATION (722)  
SUBMITTING INSTITUTE HYDRO DEPARTMENT (BRITISH HYDROGRAPHIC OFFICE)
SUBMISSION DATE 5/8/2002
DATE OF FIRST CAST 9/16/1997
DATE OF LAST CAST 10/25/1997
TOTAL NUMBER OF CASTS 162
Temperature [t] PROFILES 162
Salinity [s] PROFILES 31
Chlorophyll [c] PROFILES 31
Transmissiv [v] PROFILES 31
Pressure [w] PROFILES 31
UNIQUE CAST # LATITUDE LONGITUDE DATE TIME PROBE TYPE
11498633 50.428 -1.670 9/16/1997 14.392 CTD
11498634 48.673 -8.449 9/17/1997 16.273 CTD
11498635 47.984 -13.205 9/18/1997 10.184 CTD
9655049 47.983 -13.203 9/18/1997 10.917 XBT
9655050 47.697 -14.730 9/18/1997 16.233 XBT
9655053 47.172 -18.477 9/19/1997 1.767 XBT
9655054 46.467 -18.950 9/19/1997 7.633 XBT
11498636 47.171 -18.477 9/19/1997 10.247 CTD
9655055 45.513 -19.653 9/19/1997 12.700 XBT
9655057 43.473 -20.000 9/19/1997 22.167 XBT
9655058 42.843 -19.960 9/20/1997 1.700 XBT
11498637 42.844 -19.959 9/20/1997 10.171 CTD
9655060 41.960 -20.000 9/20/1997 17.533 XBT
9655061 41.070 -20.000 9/20/1997 22.217 XBT
9655062 39.150 -19.917 9/21/1997 6.850 XBT
11498638 38.716 -20.012 9/21/1997 10.190 CTD
9655063 38.717 -20.000 9/21/1997 12.050 XBT
9655064 38.387 -20.000 9/21/1997 14.083 XBT
9655065 38.500 -20.000 9/21/1997 15.967 XBT
9655066 37.660 -19.972 9/21/1997 18.067 XBT
9655067 37.350 -19.900 9/21/1997 19.767 XBT
9655069 37.050 -19.850 9/21/1997 22.033 XBT
9655070 36.517 -19.750 9/22/1997 0.867 XBT
11498639 35.445 -19.523 9/22/1997 10.125 CTD
9655072 35.412 -19.492 9/22/1997 12.067 XBT
11498640 32.311 -17.221 9/25/1997 13.986 CTD
9655085 31.217 -18.533 9/25/1997 21.700 XBT
9655086 29.422 -20.523 9/26/1997 8.533 XBT
11498641 29.049 -20.971 9/26/1997 11.188 CTD
9655087 28.867 -20.983 9/26/1997 13.000 XBT
9655088 27.747 -20.987 9/26/1997 18.683 XBT
9655089 33.133 -20.983 9/26/1997 23.850 XBT
9655090 24.575 -20.983 9/27/1997 9.000 XBT
11498642 24.139 -20.999 9/27/1997 11.124 CTD
9655091 23.868 -21.000 9/27/1997 13.300 XBT
9655094 22.852 -20.998 9/27/1997 18.833 XBT
9655095 21.705 -20.938 9/28/1997 0.783 XBT
9655096 20.745 -20.747 9/28/1997 5.733 XBT
9655097 20.017 -20.588 9/28/1997 9.300 XBT
11498643 19.724 -20.529 9/28/1997 11.125 CTD
9655098 19.733 -20.532 9/28/1997 12.183 XBT
9655100 18.888 -20.390 9/28/1997 17.383 XBT
9655101 18.217 -20.243 9/28/1997 20.917 XBT
9655102 17.450 -20.067 9/29/1997 1.283 XBT
9655103 16.650 -19.650 9/29/1997 5.267 XBT
9655104 16.267 -20.000 9/29/1997 7.167 XBT
9655105 15.230 -20.000 9/29/1997 12.900 XBT
9655107 14.000 -19.993 9/29/1997 18.900 XBT
9655108 12.980 -20.002 9/29/1997 23.933 XBT
9655109 11.230 -20.738 9/30/1997 9.250 XBT
11498644 10.923 -20.870 9/30/1997 11.157 CTD
9655111 9.887 -21.335 9/30/1997 18.917 XBT
9655112 9.587 -21.335 9/30/1997 18.917 XBT
9655113 9.503 -21.500 9/30/1997 21.150 XBT
9655114 9.152 -21.630 9/30/1997 23.167 XBT
9655115 8.843 -21.728 10/1/1997 0.883 XBT
9655116 8.447 -21.863 10/1/1997 3.033 XBT
9655117 8.082 -22.015 10/1/1997 5.133 XBT
9655118 7.697 -22.172 10/1/1997 7.117 XBT
11498645 7.027 -22.469 10/1/1997 11.182 CTD
9655119 7.027 -22.468 10/1/1997 11.917 XBT
9655120 6.587 -22.618 10/1/1997 14.333 XBT
9655121 6.257 -22.747 10/1/1997 16.283 XBT
9655122 5.907 -22.892 10/1/1997 18.300 XBT
9655123 5.492 -23.068 10/1/1997 20.583 XBT
9655124 4.855 -23.337 10/2/1997 0.017 XBT
9655125 4.478 -23.492 10/2/1997 2.033 XBT
9655126 4.098 -23.645 10/2/1997 4.083 XBT
9655127 3.707 -23.798 10/2/1997 6.183 XBT
9655128 3.358 -23.943 10/2/1997 8.050 XBT
9655129 2.952 -24.108 10/2/1997 10.150 XBT
11498646 2.816 -24.164 10/2/1997 11.155 CTD
9655131 2.070 -24.450 10/2/1997 17.867 XBT
9655132 1.940 -24.505 10/2/1997 18.667 XBT
9655133 1.383 -24.772 10/2/1997 21.883 XBT
9655134 1.185 -24.850 10/2/1997 23.417 XBT
9655135 0.927 -24.950 10/3/1997 0.900 XBT
9655136 0.133 -25.267 10/3/1997 5.367 XBT
9655137 0.200 -25.417 10/3/1997 7.317 XBT
11498647 -0.773 -25.663 10/3/1997 10.745 CTD
9655138 -0.827 -25.692 10/3/1997 13.217 XBT
9655139 -1.297 -25.873 10/3/1997 15.683 XBT
9655141 -1.803 -26.067 10/3/1997 19.967 XBT
9655143 -2.615 -26.440 10/4/1997 0.333 XBT
11498648 -4.786 -27.371 10/4/1997 11.721 CTD
9655147 -5.350 -27.615 10/4/1997 16.983 XBT
9655149 -6.248 -27.990 10/4/1997 21.450 XBT
9655152 -8.683 -28.997 10/5/1997 9.950 XBT
11498649 -8.967 -29.115 10/5/1997 11.671 CTD
9655155 -9.633 -29.390 10/5/1997 17.833 XBT
9655156 -10.240 -29.657 10/5/1997 21.050 XBT
9655158 -11.067 -29.967 10/6/1997 1.500 XBT
11498650 -12.877 -30.705 10/6/1997 11.617 CTD
9655161 -12.887 -30.700 10/6/1997 13.433 XBT
9655162 -13.467 -30.945 10/6/1997 17.200 XBT
9655164 -13.970 -31.180 10/6/1997 20.183 XBT
9655165 -14.477 -31.425 10/6/1997 23.367 XBT
9655167 -15.245 -31.767 10/7/1997 3.550 XBT
9655169 -16.293 -32.203 10/7/1997 9.317 XBT
11498651 -16.686 -32.362 10/7/1997 11.621 CTD
9655171 -17.338 -32.598 10/7/1997 17.233 XBT
9655173 -17.820 -32.798 10/7/1997 19.917 XBT
9655175 -18.665 -33.175 10/8/1997 0.567 XBT
9655177 -20.383 -34.038 10/8/1997 9.833 XBT
11498652 -20.662 -34.225 10/8/1997 11.798 CTD
9655180 -21.083 -34.555 10/8/1997 17.200 XBT
9655182 -21.887 -35.307 10/8/1997 22.183 XBT
9655185 -23.508 -36.900 10/9/1997 9.500 XBT
11498653 -23.902 -37.287 10/9/1997 11.786 CTD
9655187 -23.902 -37.287 10/9/1997 12.450 XBT
9655190 -24.995 -38.347 10/9/1997 19.117 XBT
9655191 -25.823 -39.117 10/10/1997 0.550 XBT
9655193 -27.065 -40.393 10/10/1997 7.933 XBT
11498654 -27.691 -40.981 10/10/1997 11.600 CTD
9655195 -28.030 -41.332 10/10/1997 14.367 XBT
9655198 -32.638 -45.877 10/10/1997 19.517 XBT
9655199 -31.170 -44.395 10/11/1997 9.233 XBT
11498655 -31.621 -44.870 10/11/1997 12.219 CTD
9655201 -31.633 -44.903 10/11/1997 13.917 XBT
9655204 -33.717 -46.983 10/12/1997 2.000 XBT
9655205 -35.355 -48.732 10/12/1997 11.717 XBT
11498656 -35.485 -48.861 10/12/1997 12.761 CTD
9655206 -35.723 -49.065 10/12/1997 15.450 XBT
9655207 -36.113 -49.482 10/12/1997 19.067 XBT
9655208 -36.702 -50.090 10/12/1997 22.867 XBT
9655209 -37.060 -50.460 10/13/1997 1.667 XBT
11498657 -38.836 -51.914 10/13/1997 12.302 CTD
9655211 -39.450 -52.258 10/13/1997 19.183 XBT
9655212 -39.733 -52.468 10/13/1997 20.983 XBT
9655214 -40.678 -53.202 10/14/1997 3.200 XBT
9655215 -40.980 -53.423 10/14/1997 5.100 XBT
9655216 -41.368 -53.753 10/14/1997 7.533 XBT
9655217 -42.017 -54.243 10/14/1997 11.183 XBT
11498658 -42.242 -54.477 10/14/1997 12.692 CTD
9655218 -42.247 -54.505 10/14/1997 13.817 XBT
11498659 -42.811 -54.870 10/14/1997 17.109 CTD
9655220 -43.162 -55.105 10/14/1997 20.000 XBT
9655222 -43.933 -55.700 10/15/1997 0.100 XBT
9655223 -44.262 -55.953 10/15/1997 2.317 XBT
9655225 -45.318 -56.618 10/15/1997 8.200 XBT
9655226 -45.690 -56.667 10/15/1997 10.133 XBT
11498660 -46.046 -56.695 10/15/1997 12.240 CTD
9655228 -46.148 -56.702 10/15/1997 15.050 XBT
11498661 -46.543 -56.750 10/15/1997 17.253 CTD
9655230 -47.703 -36.897 10/15/1997 23.767 XBT
9655232 -48.095 -56.960 10/16/1997 1.783 XBT
11498662 -49.793 -57.662 10/16/1997 12.734 CTD
11498663 -49.800 -58.231 10/16/1997 16.306 CTD
9655239 -50.940 -54.817 10/21/1997 22.450 XBT
9655238 -50.920 -54.735 10/21/1997 22.700 XBT
9655240 -52.240 -40.005 10/25/1997 3.967 XBT
9655241 -52.372 -39.883 10/25/1997 4.917 XBT
9655242 -52.518 -39.782 10/25/1997 5.933 XBT
9655243 -52.658 -39.665 10/25/1997 6.950 XBT
9655244 -52.807 -39.552 10/25/1997 7.933 XBT
9655245 -52.958 -39.422 10/25/1997 8.967 XBT
9655246 -53.135 -39.282 10/25/1997 12.017 XBT
9655247 -53.275 -39.165 10/25/1997 12.983 XBT
9655248 -53.410 -39.053 10/25/1997 13.750 XBT
9655249 -53.543 -38.943 10/25/1997 14.867 XBT
9655250 -53.703 -38.808 10/25/1997 16.050 XBT
9655251 -53.838 -38.697 10/25/1997 16.917 XBT